Wind_Speed
7 7 7 7 7 7 8 9 9 9 10 10 11 12 13 14 14 15 15 14 14 14 15 15 14 14 14 14 14 14 14 14 14 14 15 15 15 15 15 15 15 15 16 16 16 16 16 15 14 14 13 13 13 13 12 10 10 10 9 8 6 5 4 4 4 4 4 3 3
9 8 8 8 8 8 9 10 10 10 11 12 12 13 14 15 15 15 15 15 15 15 15 15 15 15 15 15 15 14 14 15 15 16 16 16 17 17 16 16 16 16 16 16 16 16 15 15 14 14 15 15 14 13 12 11 10 9 8 7 6 4 4 4 4 4 4 4 4
9 9 9 10 10 10 11 11 12 12 13 13 14 14 14 15 15 15 15 15 15 15 15 15 15 15 15 16 15 15 15 16 17 17 17 17 17 17 18 17 17 17 17 16 16 16 15 14 14 14 15 16 15 14 13 12 10 8 8 7 5 4 4 4 4 4 4 4 4
9 9 10 10 11 11 12 12 13 13 14 14 14 14 15 14 15 15 15 15 16 16 16 16 16 16 16 16 16 17 17 17 18 18 18 18 18 18 18 18 18 18 18 17 17 16 15 15 15 15 16 16 15 14 13 11 9 8 8 7 6 5 5 5 4 4 4 4 5
10 10 10 11 11 12 12 13 13 14 14 15 15 15 15 15 15 16 16 16 16 16 17 17 18 18 17 17 17 18 18 18 18 18 18 18 18 18 18 18 18 18 18 17 17 16 16 15 15 16 16 15 14 14 13 11 10 8 7 7 6 6 5 5 5 5 5 5 5
11 11 11 12 12 13 13 14 14 15 15 15 16 16 16 16 16 17 17 17 18 18 18 19 18 18 18 17 17 18 18 18 18 17 17 18 18 18 18 18 18 18 18 18 18 17 16 15 15 16 15 15 14 13 12 11 10 9 8 7 6 6 6 6 6 6 6 6 7
11 12 13 14 14 14 15 15 15 16 16 16 17 17 17 17 17 18 18 19 19 19 18 18 18 18 18 18 18 18 18 18 18 18 18 18 19 19 19 19 19 19 18 18 18 17 16 15 15 15 15 14 13 13 12 10 10 9 9 8 8 8 8 8 8 8 8 8 9
12 14 15 15 16 16 16 16 17 17 17 17 17 17 18 18 18 18 19 19 18 18 18 17 17 18 18 18 18 18 18 18 18 18 18 19 20 20 20 20 19 19 19 18 18 17 16 15 15 15 15 14 13 12 11 11 11 11 10 10 10 9 9 9 9 9 9 10 10
14 15 15 16 16 16 17 17 17 17 17 17 18 18 18 18 18 19 19 19 18 17 17 17 18 18 18 18 18 18 17 17 17 18 18 19 19 20 19 19 19 18 18 17 16 15 15 15 16 16 16 15 14 13 12 12 11 12 12 11 11 10 10 10 10 10 10 11 11
15 15 16 16 17 17 18 18 18 18 18 18 18 18 18 19 19 18 18 18 18 17 17 18 18 18 18 17 17 16 16 15 16 16 17 17 17 17 17 17 17 17 17 16 14 12 12 14 15 17 18 18 17 16 15 14 13 13 13 12 11 11 11 11 11 12 12 13 13
15 15 16 16 17 18 18 18 18 18 18 18 18 19 19 18 18 18 17 17 18 18 18 18 18 18 17 16 15 15 14 14 14 15 15 15 15 15 15 15 15 16 15 15 13 12 12 13 16 18 19 19 19 19 17 15 14 14 14 13 13 13 13 13 13 14 14 15 15
15 16 16 17 17 18 18 18 18 18 18 18 19 19 18 17 17 17 17 17 17 17 18 17 17 16 16 15 14 13 13 14 14 14 14 14 15 15 15 15 15 15 15 14 14 13 13 15 17 19 21 22 21 19 17 15 14 14 14 14 14 15 15 15 16 16 16 16 16
16 16 17 17 18 18 18 18 18 18 18 18 18 17 17 16 16 16 16 16 16 16 16 16 15 15 14 14 13 13 13 13 13 14 14 15 15 16 16 16 15 15 15 14 14 15 16 17 18 19 21 21 20 18 16 15 14 14 14 15 16 16 17 17 17 17 17 16 16
17 17 18 18 18 18 18 17 17 17 16 16 16 16 16 15 15 14 14 14 14 14 15 15 14 14 13 13 13 13 13 13 13 14 15 15 15 16 16 16 15 15 15 15 15 15 16 16 16 16 16 17 16 15 14 13 13 13 14 15 16 17 17 17 17 16 16 15 15
17 18 18 18 17 17 16 16 15 15 14 14 14 14 14 14 13 13 13 12 13 13 14 14 14 13 13 12 12 12 13 13 13 14 14 15 15 15 15 15 15 15 14 14 13 12 12 11 11 11 12 13 13 13 13 13 12 13 13 14 15 16 16 15 15 14 14 14 14
17 17 17 16 16 15 15 14 13 12 12 13 13 12 12 11 11 11 11 10 11 12 12 12 13 13 12 12 12 12 12 12 13 13 14 14 14 14 14 13 13 12 11 11 10 10 9 9 9 10 10 12 13 13 14 15 15 15 15 16 16 16 16 16 16 15 15 15 15
16 16 15 15 14 13 13 12 11 11 11 11 11 10 10 9 10 9 9 9 9 10 10 11 11 10 11 11 11 11 11 12 13 12 12 12 12 12 12 11 10 10 9 9 10 10 10 11 12 12 13 13 14 15 16 17 17 17 18 18 18 18 18 18 18 17 17 17 17
15 15 14 14 13 12 12 11 11 11 10 10 10 9 9 9 9 9 9 8 8 8 9 9 8 8 9 10 11 11 10 11 11 11 10 10 10 10 9 9 8 9 9 10 11 11 12 13 14 15 15 15 16 16 17 17 18 18 18 18 18 18 18 18 18 18 18 18 18
14 13 13 13 13 12 11 10 10 10 10 10 10 9 9 9 9 9 9 8 8 8 8 8 8 8 8 9 10 10 10 10 10 9 9 9 9 9 9 9 8 9 9 10 10 11 11 12 13 14 14 14 15 15 16 16 16 16 17 17 17 17 17 18 18 18 18 18 19
13 13 13 13 13 12 11 10 10 10 10 10 10 9 9 9 9 8 8 8 8 8 8 8 8 8 8 9 9 9 9 9 9 9 9 9 9 9 9 9 10 10 10 10 10 10 10 11 11 12 12 13 13 14 15 15 15 16 16 17 17 17 18 18 18 18 19 19 20
14 13 13 13 13 12 11 10 10 11 10 9 9 8 8 8 8 7 7 7 7 7 7 7 8 8 8 8 9 9 9 8 9 9 9 10 10 10 10 11 11 11 11 11 11 11 11 11 11 12 12 13 13 14 15 15 16 16 17 17 17 18 18 18 19 19 20 20 21
15 14 14 13 13 12 11 10 10 10 10 9 9 8 7 6 6 6 6 6 7 6 6 6 7 7 7 8 8 8 9 9 9 9 10 10 10 10 11 11 11 11 11 11 11 11 11 11 11 12 13 13 14 14 15 15 16 17 17 18 18 19 19 19 19 20 20 20 21
16 15 15 14 13 12 11 10 10 10 10 9 9 7 6 5 5 5 5 6 6 6 6 6 6 7 7 8 8 9 9 10 10 10 10 10 11 11 11 12 12 12 12 12 11 10 10 10 10 11 12 13 14 14 15 16 16 17 18 19 19 19 19 19 20 20 20 20 21
17 16 16 15 14 13 12 12 11 10 9 9 8 6 5 4 5 5 5 5 5 6 6 7 7 8 8 9 9 10 10 10 11 11 11 11 12 12 12 12 12 12 12 12 11 10 9 9 10 10 11 12 13 14 15 15 16 17 18 19 19 20 20 20 20 20 20 21 21
17 17 16 15 14 14 13 12 11 9 8 7 6 6 5 4 5 5 5 6 6 7 8 8 9 10 10 10 10 10 11 11 12 12 12 13 13 13 13 13 13 12 12 11 11 11 12 11 11 11 11 12 13 14 15 16 16 17 18 18 19 20 20 20 21 21 21 21 21
17 17 17 16 15 14 12 11 9 8 7 6 6 6 6 6 6 6 7 8 9 9 10 11 11 11 11 11 11 11 12 12 12 13 13 13 13 13 13 13 13 13 12 11 11 12 12 12 12 12 12 12 13 14 15 16 17 17 18 19 19 20 20 21 21 21 21 21 21
18 17 16 15 14 13 12 10 9 7 6 6 6 7 7 7 8 8 9 10 10 11 11 11 11 11 11 11 12 12 13 13 13 13 13 13 13 14 14 14 14 13 12 11 11 12 12 12 12 12 13 13 13 14 16 16 17 18 18 19 19 20 20 21 21 21 21 21 21
18 16 15 14 13 12 11 10 8 7 7 7 7 7 8 8 9 10 11 11 11 11 12 11 11 11 11 12 13 13 13 13 13 13 13 13 13 14 14 14 15 14 11 9 10 10 11 11 12 13 14 14 14 14 15 17 18 18 18 19 19 20 20 21 21 21 21 21 21
18 16 14 12 11 11 10 9 8 7 7 7 8 8 9 9 10 11 12 12 12 12 11 11 12 12 13 13 14 14 14 14 13 13 13 13 13 14 14 15 15 15 13 11 10 9 10 11 12 14 15 16 15 15 15 16 17 18 19 19 19 20 20 21 21 21 21 21 21
17 15 12 11 10 10 9 9 8 7 7 8 8 9 10 10 11 12 12 12 12 12 11 11 12 13 14 14 15 14 14 14 13 13 13 13 14 15 15 15 15 15 13 12 10 10 11 12 14 15 16 18 18 16 16 17 18 19 19 20 20 21 21 22 22 22 22 22 21
16 13 11 10 9 9 9 9 8 8 8 8 9 10 10 11 11 12 13 13 13 12 12 12 13 14 15 15 15 15 15 14 14 13 14 14 15 15 15 16 16 15 14 13 12 11 12 14 15 16 18 19 19 18 17 18 18 19 20 21 21 22 22 22 22 22 22 22 21
15 12 10 9 9 9 9 9 8 8 9 9 10 10 11 11 12 13 13 14 13 13 13 13 14 15 16 16 16 15 15 15 14 14 14 15 16 16 16 16 16 15 14 14 14 14 15 16 17 18 19 20 21 20 19 18 19 20 21 22 22 23 23 23 22 22 22 22 21
13 10 9 9 9 9 9 9 9 9 10 10 10 10 11 12 12 13 14 14 14 14 14 14 15 16 17 17 17 16 16 15 15 15 15 16 17 17 17 17 16 15 15 15 15 16 16 17 18 19 20 22 22 20 19 19 20 20 21 21 22 22 22 22 22 22 22 21 21
11 9 8 8 8 9 9 9 9 10 10 11 11 11 11 12 13 14 14 14 14 14 14 15 16 17 17 17 17 16 16 15 15 16 16 17 17 17 17 17 16 16 15 16 16 16 17 18 19 20 21 23 22 20 19 19 20 20 21 22 22 22 22 22 22 22 21 20 19
9 8 7 7 8 8 9 9 10 10 11 11 11 11 12 13 13 14 14 14 15 15 16 16 17 17 17 17 17 16 16 16 16 16 17 17 18 18 18 18 17 16 16 16 16 16 17 18 19 21 22 22 20 19 19 19 20 21 21 22 22 22 22 22 21 20 20 19 18
8 7 7 7 7 8 9 9 10 10 11 11 11 12 12 13 13 14 14 15 15 16 17 17 17 18 18 17 17 17 16 17 17 17 17 17 18 18 18 18 18 17 16 15 15 16 18 19 20 21 21 20 18 18 19 19 19 20 20 21 21 21 21 20 20 19 18 18 17
6 6 7 7 8 8 9 9 10 10 10 11 11 12 12 13 13 14 15 15 16 17 17 18 18 18 18 18 17 17 17 17 18 18 18 17 17 18 18 19 18 17 16 15 15 16 18 18 19 19 18 17 17 18 18 18 19 19 19 20 20 20 20 19 19 19 18 17 17
7 7 7 7 8 8 9 9 10 10 11 11 11 12 12 13 14 14 15 16 16 17 18 18 18 18 18 18 18 17 17 18 18 18 18 18 18 18 18 19 19 18 17 16 16 16 17 17 17 16 16 15 16 17 18 18 18 18 19 19 19 19 19 18 18 17 17 16 16
6 6 7 7 8 8 9 9 10 10 11 11 11 12 13 13 14 15 16 16 17 17 18 18 18 18 18 18 18 18 18 18 19 19 18 18 18 17 17 18 18 18 18 17 16 16 16 15 14 14 14 14 16 16 17 17 18 18 19 19 19 19 18 17 16 16 16 16 15
5 5 6 6 7 8 8 9 10 10 11 11 12 12 13 14 15 15 16 16 17 17 18 18 19 19 18 18 18 18 19 19 19 19 19 18 18 17 17 17 18 18 18 17 16 15 14 13 13 13 14 14 15 15 16 17 17 18 18 18 18 18 17 17 16 16 16 17 17
4 4 5 6 7 8 8 9 10 10 11 11 12 13 13 14 15 16 16 17 18 18 18 18 19 18 18 18 18 18 19 19 20 20 19 18 17 17 16 17 17 18 18 17 16 15 14 13 13 13 13 13 14 15 15 16 17 17 17 18 18 17 17 18 17 17 17 18 18
Wind_Direction
291 294 298 301 301 299 298 298 299 301 302 304 305 305 305 304 303 301 300 299 298 298 298 297 296 295 293 292 291 290 289 289 289 288 288 287 287 287 289 290 291 291 291 290 289 289 289 289 290 289 288 287 286 285 284 282 279 278 277 274 265 257 252 248 240 235 232 225 221
292 295 298 299 297 296 296 297 299 301 303 304 305 306 306 304 302 301 299 298 297 297 297 297 296 295 294 293 292 291 291 291 291 291 291 290 291 291 292 292 292 291 289 288 287 286 286 287 288 288 287 286 283 279 277 275 272 271 269 263 254 245 239 236 226 223 223 221 224
290 292 294 295 296 298 299 300 300 302 303 304 305 305 304 303 301 299 298 297 296 296 296 296 297 296 295 294 294 294 293 294 294 294 294 294 294 294 294 293 293 291 289 288 286 285 285 285 286 286 285 284 279 275 273 272 266 262 259 249 238 228 224 224 220 218 218 220 224
287 289 293 296 299 301 301 301 301 302 303 304 304 304 303 301 300 299 298 298 297 297 297 297 298 298 297 296 295 295 296 296 296 295 294 294 294 294 294 293 293 292 290 289 288 287 286 284 284 283 282 280 274 272 271 267 259 253 248 241 235 228 221 218 216 217 221 223 226
286 290 295 299 301 301 301 301 302 303 304 304 303 303 302 301 300 300 299 299 298 298 298 299 299 299 298 296 295 296 296 295 295 294 292 292 292 292 293 292 292 291 291 290 289 288 285 282 280 279 277 275 270 268 267 262 254 246 241 239 236 233 229 224 222 224 228 230 229
288 292 296 299 301 302 303 303 304 305 305 304 303 301 301 301 301 300 300 299 298 297 298 299 299 299 297 295 294 293 293 294 293 293 292 292 292 292 292 292 292 291 291 291 290 288 284 280 277 276 274 272 269 266 262 255 247 240 236 235 236 238 240 239 233 231 233 236 237
293 296 298 300 302 303 305 306 306 306 305 304 303 302 301 301 300 300 299 298 297 296 296 297 297 297 296 295 294 293 293 293 293 293 293 293 294 293 293 292 292 292 292 291 291 289 285 280 278 277 276 274 271 267 260 249 241 236 234 235 236 238 239 240 237 234 234 237 237
298 299 300 302 304 305 307 307 307 307 306 305 304 303 302 301 300 299 299 297 296 294 294 294 294 295 295 295 294 294 294 293 293 294 294 294 294 293 292 292 292 292 293 293 293 292 289 284 281 280 280 278 274 270 264 255 245 239 237 237 238 238 238 239 239 238 237 238 238
301 301 303 304 306 307 308 308 308 307 306 305 304 304 303 302 301 300 299 297 295 293 292 291 292 292 293 293 294 294 294 294 294 294 294 294 293 293 293 294 296 297 298 298 298 297 294 289 286 285 283 281 277 273 270 264 255 248 244 244 244 243 243 245 246 246 244 244 244
304 305 306 307 308 309 309 309 309 308 307 306 306 305 305 304 302 301 299 298 296 294 293 291 291 292 292 293 295 295 295 295 295 295 296 296 296 297 299 302 304 306 306 307 308 306 301 295 290 287 284 282 279 276 272 268 262 257 254 254 254 255 254 254 254 254 253 252 250
308 309 310 311 311 312 312 311 310 310 309 308 308 308 307 306 304 302 301 300 299 297 296 295 295 295 296 298 299 299 299 299 299 299 300 301 303 305 307 309 311 312 313 314 315 314 310 302 294 288 284 282 279 277 274 270 267 265 263 262 262 262 261 259 258 257 256 255 253
312 313 313 313 314 314 314 313 312 311 310 309 309 309 308 307 306 305 304 304 303 302 302 302 302 303 304 306 307 307 306 305 305 306 306 306 309 311 312 312 313 313 315 317 316 315 311 304 299 292 287 283 280 278 275 273 271 270 269 266 264 263 262 260 259 258 257 256 255
314 315 315 314 314 314 314 313 312 311 310 309 309 309 308 308 308 309 309 309 309 310 310 311 311 311 312 314 316 316 315 313 313 313 311 310 312 313 314 315 315 315 316 318 315 309 303 300 299 298 295 292 288 284 280 277 275 274 272 269 267 265 263 262 261 260 259 258 257
315 314 314 314 314 314 313 312 311 310 309 309 309 309 310 310 311 313 315 316 316 317 318 318 317 316 318 322 322 321 320 319 318 317 316 315 315 317 319 317 318 316 313 313 313 307 300 299 302 306 309 309 305 300 295 291 289 286 284 282 279 277 274 271 267 265 262 261 261
314 313 313 312 312 312 311 310 310 310 310 310 311 313 314 314 314 317 321 323 322 321 321 321 319 319 321 325 326 324 321 320 320 319 318 318 317 320 321 317 318 315 311 311 313 311 309 312 317 322 326 327 326 323 321 321 319 317 314 310 306 301 296 291 285 280 276 273 270
312 312 311 311 310 310 310 311 312 312 312 313 315 318 320 320 321 324 329 331 327 324 323 323 320 320 321 323 326 325 321 319 317 316 316 318 315 315 316 314 315 315 314 316 317 319 321 323 324 325 327 329 329 329 330 332 332 331 329 327 323 318 314 309 305 300 296 292 286
310 311 311 310 310 310 312 313 314 314 314 315 317 321 325 329 330 331 335 341 336 332 329 327 327 329 329 326 324 323 320 316 313 312 313 314 312 311 310 310 309 310 311 311 312 315 317 318 318 318 318 320 320 321 322 324 324 324 322 320 317 314 311 309 307 304 301 298 294
309 310 311 310 310 310 311 313 313 313 313 314 316 320 325 331 333 331 333 343 348 345 339 336 337 336 333 329 322 321 320 315 312 310 309 308 308 308 307 306 304 304 305 305 305 306 306 308 309 311 313 314 314 314 314 314 314 313 311 308 305 302 299 297 296 295 293 292 290
307 308 309 309 308 308 308 309 310 310 311 313 315 319 323 328 330 328 327 333 345 349 346 342 338 335 332 330 325 321 317 313 310 307 305 304 304 304 304 303 303 303 303 303 303 303 304 304 305 307 309 309 309 308 307 306 304 301 298 295 292 289 286 285 284 282 281 281 280
303 304 305 306 305 303 303 305 307 308 310 312 316 320 323 325 326 328 329 333 340 344 343 339 336 334 332 327 323 319 314 310 308 305 303 303 302 302 301 301 301 301 301 301 301 302 302 303 304 304 304 304 303 301 300 297 295 292 290 287 285 282 278 277 275 275 274 273 272
299 301 302 302 301 299 299 302 304 307 309 312 315 317 320 321 323 328 334 338 340 340 340 339 335 332 329 325 320 316 311 307 306 303 301 301 299 298 298 298 298 298 298 298 298 299 300 300 301 301 301 300 298 296 294 291 289 287 285 283 280 276 272 270 270 270 270 269 269
299 300 302 301 299 298 298 300 304 306 307 308 310 313 317 321 324 328 335 338 339 340 340 337 333 330 327 322 316 310 306 303 301 299 299 298 298 297 296 295 294 294 293 292 293 294 296 298 300 300 300 298 296 294 291 288 287 285 284 281 277 273 271 268 268 269 269 269 270
301 302 303 302 301 300 300 301 303 305 306 306 310 313 319 325 327 328 330 333 336 337 335 330 326 323 320 316 311 306 303 300 299 298 298 298 297 297 296 296 294 292 290 289 288 288 290 295 300 301 301 300 298 295 293 291 289 288 286 284 282 280 278 276 275 274 274 274 274
301 302 303 303 303 302 301 302 304 306 307 308 312 315 320 322 321 320 320 322 325 326 324 321 318 316 314 311 307 303 301 300 301 301 301 300 300 299 299 298 296 295 293 290 286 281 280 287 295 301 302 301 300 297 295 293 291 290 290 289 289 288 287 285 283 281 279 278 277
299 299 300 301 301 301 302 304 306 307 308 310 312 312 311 312 311 309 308 309 312 313 313 310 309 310 310 308 306 304 302 302 303 303 303 303 302 302 300 299 298 296 294 290 281 273 273 280 289 298 301 302 300 298 296 294 292 291 291 290 290 289 288 287 284 282 280 279 277
297 296 297 299 301 302 303 304 304 303 303 304 304 304 303 303 303 302 302 303 304 306 306 305 305 305 304 303 303 304 304 305 305 305 304 304 304 303 303 301 299 297 294 286 274 269 272 280 289 298 303 303 301 299 298 295 294 292 291 290 289 288 287 286 284 283 281 279 278
297 296 297 299 301 301 300 298 297 296 296 297 298 299 300 300 300 301 301 302 303 304 305 306 307 306 304 302 304 305 307 307 306 305 305 305 305 305 304 303 302 301 294 280 268 266 271 278 289 299 304 305 302 300 298 297 295 294 292 291 289 288 286 286 285 284 283 281 280
296 295 296 297 298 296 293 291 290 289 290 292 295 297 297 298 299 301 302 303 304 306 308 310 312 311 309 309 309 309 308 308 306 306 306 306 306 306 306 305 305 303 295 276 268 268 272 280 290 298 304 306 304 301 298 296 295 294 292 291 289 288 287 286 286 286 285 284 283
293 293 294 293 292 288 284 283 282 283 286 289 291 293 295 297 300 302 303 303 304 306 309 312 314 314 313 312 311 310 309 308 307 308 308 308 308 308 307 305 306 305 299 287 280 278 281 286 293 299 304 307 307 304 300 297 294 293 292 290 289 288 288 287 287 286 286 285 285
289 289 288 286 282 278 276 276 276 279 283 287 288 291 294 298 301 303 303 303 304 305 308 311 314 315 314 313 312 310 309 309 309 310 310 310 309 308 307 306 306 306 304 299 295 292 291 293 296 300 303 306 307 305 300 296 293 292 290 289 288 287 287 287 287 286 286 285 285
284 282 279 275 272 270 269 270 273 276 279 283 286 290 295 299 301 303 303 304 304 304 306 309 312 313 314 313 312 311 310 309 310 311 311 310 309 308 307 306 306 306 305 303 302 300 297 296 298 300 304 306 308 306 300 295 292 290 288 287 286 286 286 286 286 285 284 284 284
279 274 268 266 266 265 265 267 271 275 278 281 285 290 294 298 301 303 304 304 304 305 306 309 311 313 314 314 313 312 310 310 310 310 310 310 308 307 307 307 307 305 304 303 303 301 299 298 299 302 304 307 309 307 301 295 291 289 287 285 285 285 285 284 284 283 283 283 283
273 264 258 261 263 264 264 267 271 274 276 279 284 289 294 298 301 303 304 305 305 306 308 309 311 312 313 313 312 312 311 310 309 309 309 309 308 308 307 307 307 305 301 301 302 302 301 301 302 303 305 308 309 307 301 295 292 289 287 286 286 285 285 285 284 284 283 283 284
260 251 251 257 261 262 264 267 270 272 275 279 283 289 294 298 300 302 304 305 306 307 308 309 310 310 311 311 311 311 311 310 309 308 308 308 308 308 307 306 307 304 302 304 305 306 305 305 304 305 306 309 310 307 301 296 292 290 288 287 287 286 286 286 285 284 284 285 285
246 239 244 251 256 260 264 267 269 271 274 279 285 291 295 298 301 303 305 307 308 308 309 309 309 309 309 309 310 310 310 309 308 308 308 309 308 307 306 305 305 305 305 308 310 310 309 307 305 305 307 310 309 306 302 298 294 292 290 289 288 288 288 287 287 287 287 288 288
236 229 235 242 250 256 262 265 268 271 275 281 288 293 297 300 303 305 307 309 310 310 310 310 309 309 309 309 309 309 309 309 309 309 308 308 307 307 305 304 304 304 305 308 310 310 309 307 305 305 307 309 309 306 303 299 296 294 292 292 291 291 291 292 292 292 292 292 291
227 219 225 234 246 254 259 263 267 272 278 284 291 296 300 303 306 308 310 311 312 311 311 310 310 310 310 310 309 309 309 310 310 309 308 307 306 306 305 304 303 302 302 303 304 305 304 304 303 304 307 310 309 307 304 301 299 297 296 296 295 295 295 296 295 294 294 292 291
223 217 222 232 243 251 257 262 268 275 282 288 294 300 304 308 309 310 311 312 311 310 310 310 310 310 310 310 310 309 309 309 310 309 309 308 307 305 305 303 302 301 300 299 298 298 299 299 300 302 306 309 309 308 305 303 301 300 299 299 298 298 298 297 296 295 294 292 291
225 220 226 236 245 252 258 264 271 279 286 293 300 306 309 311 311 311 310 310 309 309 309 310 310 311 311 311 310 310 310 310 311 311 310 309 307 306 304 302 300 299 298 297 296 296 295 295 296 299 304 309 309 308 307 305 303 302 301 300 299 299 299 299 298 297 296 295 295
226 227 235 244 251 256 263 270 277 284 291 299 306 310 312 311 310 310 309 309 310 310 311 311 311 311 312 312 311 311 311 312 312 312 311 309 307 305 303 300 298 298 297 297 296 295 295 294 295 299 303 308 309 309 308 307 304 302 301 301 301 302 302 301 301 300 299 297 297
234 238 245 250 255 262 270 278 285 291 299 305 308 310 310 309 309 309 310 312 313 313 313 312 312 312 312 312 312 312 313 313 312 311 309 307 305 303 301 300 299 298 298 298 297 296 295 295 295 296 299 303 306 307 308 307 305 304 303 303 304 303 303 302 301 300 298 296 294
Height
817 817 817 817 817 816 816 816 815 815 814 814 813 812 812 811 811 810 809 809 808 807 806 806 805 804 803 803 802 802 801 801 801 801 800 800 799 798 798 797 797 797 796 796 796 796 795 795 794 793 793 792 792 791 791 791 791 791 790 790 789 789 789 789 789 789 788 788 788
816 816 816 816 816 816 815 815 814 814 813 813 812 811 811 810 810 809 808 807 807 806 806 805 804 803 802 802 802 801 801 801 800 800 799 799 798 797 797 796 796 796 796 795 795 795 794 794 793 793 792 791 791 791 790 790 790 790 789 789 789 788 788 788 788 788 788 788 788
816 816 816 816 815 815 814 814 813 813 812 812 811 811 810 810 809 808 807 806 806 805 805 804 803 802 802 801 801 801 801 800 800 799 799 798 797 797 796 796 795 795 795 794 794 794 793 793 792 792 791 791 791 790 789 789 789 789 789 788 788 787 787 787 787 787 787 788 788
816 816 815 815 814 814 814 813 812 812 811 811 811 810 809 808 808 807 806 805 805 804 803 803 802 801 801 801 801 800 800 800 799 798 798 797 797 796 796 795 795 794 794 793 793 793 792 792 791 791 791 790 790 789 788 788 788 788 787 787 787 786 786 786 786 786 787 787 787
815 815 815 814 814 813 813 812 812 811 811 810 809 809 808 807 806 806 805 804 804 803 802 802 801 801 800 800 800 799 799 799 798 798 797 796 796 796 795 794 794 793 793 793 792 792 791 791 791 790 790 789 788 788 787 786 786 786 786 786 786 786 786 785 786 786 786 786 786
814 814 814 813 813 812 812 811 811 810 809 809 808 807 807 806 805 805 804 803 802 802 801 801 800 800 799 799 798 798 798 797 797 796 796 795 795 795 794 793 793 792 792 792 791 791 791 790 790 789 789 788 787 786 786 786 786 786 786 786 786 786 785 785 785 785 785 785 785
812 813 812 812 812 811 811 810 810 809 808 807 807 806 806 805 804 804 803 802 801 801 800 800 799 799 798 797 797 796 796 796 796 795 795 794 794 793 793 792 792 791 791 791 791 790 790 790 789 789 788 787 786 786 785 785 784 784 784 785 785 785 785 784 784 784 784 784 784
812 812 812 811 811 811 810 809 809 808 807 806 806 805 804 804 803 802 802 801 800 800 799 799 798 797 797 796 796 795 795 794 794 794 794 794 793 793 792 792 791 791 790 790 790 790 789 789 789 788 788 787 786 786 785 784 784 783 783 783 783 783 783 783 782 782 782 783 783
811 811 811 811 810 810 809 808 808 807 806 805 805 804 803 802 802 801 801 800 799 798 798 797 797 796 796 795 794 794 794 793 793 793 793 793 793 792 791 791 791 790 790 790 790 789 789 789 789 788 787 787 786 785 784 784 783 783 782 781 781 781 781 781 781 781 781 781 781
811 811 811 810 810 809 808 807 807 806 805 804 803 803 802 801 801 800 799 798 798 797 796 796 796 795 794 794 793 793 793 793 792 792 792 792 792 792 791 791 791 790 790 789 789 789 789 788 788 788 787 786 786 785 784 783 783 782 781 781 781 780 780 780 780 780 780 780 780
811 811 810 810 809 808 807 807 806 805 804 803 802 801 801 800 799 799 798 797 796 796 795 795 794 793 793 792 792 792 792 792 792 792 791 791 791 791 791 790 790 790 789 789 789 789 788 788 787 787 786 786 785 784 783 782 781 781 781 780 780 779 779 779 779 779 778 778 778
811 811 810 809 808 808 807 806 805 804 803 802 802 801 800 799 798 798 797 796 796 795 794 794 793 793 792 792 791 791 791 791 791 791 791 791 791 790 790 790 789 789 789 788 788 788 787 787 787 786 786 785 784 783 782 781 781 780 779 779 779 778 778 777 777 777 777 776 776
811 810 809 809 808 807 806 806 805 804 803 802 801 800 799 798 798 797 796 796 795 794 794 793 793 793 792 792 791 791 791 791 791 791 791 791 790 790 790 789 789 789 788 788 787 787 786 786 786 786 785 784 783 782 781 780 779 779 778 778 777 777 776 776 776 775 775 775 775
810 810 809 808 807 806 806 805 804 803 802 801 800 799 798 798 797 796 796 795 795 794 794 793 793 793 793 793 792 791 791 791 791 791 791 791 791 790 790 789 789 788 788 787 787 786 786 786 786 785 784 783 782 781 781 780 779 778 778 777 777 776 776 775 775 774 774 774 774
810 809 808 807 807 806 805 804 803 802 801 800 800 799 798 797 797 796 796 796 795 795 794 794 793 793 793 793 792 792 792 792 792 791 791 791 791 790 790 789 788 788 788 787 786 786 786 785 784 784 783 783 782 781 781 780 779 778 777 777 776 776 776 775 775 774 773 773 773
809 808 807 807 806 805 804 803 802 801 801 800 799 798 798 797 797 796 796 796 795 795 795 795 794 794 793 793 793 792 792 792 792 791 791 791 790 790 789 789 788 787 787 786 786 786 785 784 783 783 782 782 781 781 780 779 778 777 777 776 776 776 776 775 774 774 773 773 772
808 807 806 806 805 804 803 803 802 801 800 800 799 798 798 797 797 797 796 796 795 795 795 795 794 794 793 793 793 792 792 791 791 791 791 790 790 789 788 788 787 786 786 786 785 785 784 784 783 782 781 781 781 780 779 778 777 777 777 776 776 776 776 775 774 774 773 773 772
807 806 806 805 804 803 802 802 801 801 800 799 798 798 797 797 797 797 797 796 795 795 794 794 794 793 793 792 792 792 792 791 791 791 790 790 789 788 787 787 786 785 785 784 784 783 783 782 782 781 781 780 780 779 778 778 777 777 776 776 776 776 776 775 774 774 773 773 772
806 805 804 804 803 802 801 801 800 800 799 798 798 797 797 797 797 797 797 796 796 795 794 794 793 793 793 792 792 791 791 791 790 790 789 789 788 787 786 786 785 785 784 783 783 782 782 781 781 781 780 780 779 778 778 777 777 776 776 776 775 775 775 774 774 773 773 772 771
805 804 803 802 802 801 801 800 799 799 798 797 797 797 797 797 797 797 796 796 795 795 794 794 793 793 792 792 791 791 791 790 790 789 789 788 787 787 786 785 785 784 783 783 782 782 781 781 781 780 779 779 778 778 777 777 776 776 775 775 774 774 773 773 772 772 771 771 770
803 802 802 801 800 800 799 799 798 798 797 797 797 797 797 796 797 796 796 796 795 794 794 793 793 792 792 791 791 791 790 790 789 789 788 787 787 786 785 785 784 783 783 782 782 781 781 781 780 780 779 778 778 777 776 776 775 775 774 774 773 772 771 771 771 770 769 769 768
802 801 801 800 799 799 798 798 797 797 797 796 796 796 796 796 796 796 796 795 795 794 793 793 792 792 792 791 791 790 790 789 789 788 787 786 786 785 785 784 783 782 782 781 781 781 780 780 780 779 778 778 777 776 776 775 774 773 773 772 771 771 770 769 768 768 767 767 766
802 801 801 800 799 799 798 797 797 796 796 796 796 796 796 796 796 796 795 795 794 794 793 793 792 792 791 791 791 790 789 789 788 787 786 786 785 784 784 783 782 781 781 780 780 780 779 779 779 778 778 777 776 776 775 774 773 772 771 771 770 769 768 767 766 766 765 765 764
801 801 800 800 799 798 798 797 796 796 796 796 796 795 796 795 795 795 795 794 794 793 793 793 792 792 791 791 790 789 789 788 787 786 786 785 784 783 783 782 781 780 780 779 779 779 778 778 778 778 777 777 776 775 774 773 772 771 771 769 768 767 766 766 765 764 763 763 762
800 800 799 798 798 797 797 796 796 796 795 795 795 795 795 795 795 795 794 794 793 793 792 792 791 791 791 790 789 788 788 787 786 786 785 784 783 782 782 781 780 779 779 778 777 777 777 777 777 777 776 776 775 774 773 772 771 771 770 768 767 766 765 764 763 762 761 761 760
798 798 797 797 797 796 796 796 796 796 795 795 795 795 795 795 794 794 794 793 792 792 791 791 790 790 789 789 788 787 786 786 785 784 784 783 782 781 781 780 779 778 777 777 776 776 776 776 776 776 775 775 775 774 773 771 771 770 768 767 766 765 764 762 761 760 760 759 758
796 796 796 796 796 796 796 796 796 795 795 795 795 795 794 794 794 793 793 792 791 791 790 790 789 789 788 787 787 786 785 784 784 783 782 782 781 781 780 779 778 777 776 775 775 775 775 775 775 774 774 774 774 773 772 771 770 768 767 766 765 763 762 761 760 758 757 756 756
795 795 795 795 795 796 796 796 795 795 794 794 794 794 794 794 793 792 792 791 791 790 789 789 788 788 787 786 786 785 784 783 783 782 781 781 780 780 779 778 777 776 775 774 774 774 774 773 773 773 773 773 773 772 771 770 769 767 766 765 763 762 761 759 758 757 756 755 754
794 793 793 794 794 795 795 795 795 794 794 794 794 794 793 793 792 791 791 790 790 789 788 788 787 787 786 785 785 784 783 782 782 781 781 780 780 779 778 777 777 776 774 773 773 773 772 772 772 772 772 771 771 771 770 769 768 766 765 763 762 761 759 758 757 756 754 753 752
792 792 792 792 793 794 794 794 794 794 793 793 793 793 792 792 791 791 790 789 789 788 787 787 787 786 785 785 784 783 782 781 781 780 780 780 779 778 778 777 776 775 773 771 772 772 771 771 771 771 771 771 770 770 769 768 767 765 764 762 761 759 758 757 756 754 753 752 751
790 790 791 791 792 793 793 793 793 793 793 793 792 792 791 791 791 790 789 788 788 787 787 786 786 785 784 784 783 782 781 781 780 780 779 779 778 778 777 776 775 774 773 771 771 771 771 771 770 770 770 769 769 769 768 767 766 764 762 761 759 758 757 756 754 753 752 751 750
788 789 789 790 791 792 792 793 793 793 792 792 792 791 791 790 790 789 788 788 787 786 786 786 785 784 784 783 782 781 781 780 780 779 779 778 778 777 776 775 775 774 772 771 770 770 770 770 769 769 768 768 768 767 766 765 764 762 761 759 758 756 755 754 753 751 751 750 749
786 787 788 789 790 791 791 792 792 792 792 791 791 790 790 789 789 788 788 787 786 786 785 785 784 783 783 782 781 780 780 779 779 779 778 778 777 776 776 775 774 773 772 770 770 770 769 769 768 768 767 767 766 766 765 763 762 761 759 757 756 755 753 752 751 750 749 748 747
785 786 787 788 789 790 791 791 791 791 791 791 790 789 789 788 788 787 786 786 786 785 784 784 783 782 782 781 780 780 779 779 778 778 777 777 776 776 775 774 773 772 771 770 769 769 768 768 767 767 766 766 765 764 763 762 760 759 757 756 754 753 752 751 750 748 748 747 746
784 785 786 787 788 789 790 790 791 791 790 790 789 788 788 787 787 786 786 785 785 784 783 783 782 781 781 780 780 779 778 778 777 777 776 776 775 775 774 773 772 771 770 769 768 768 767 766 766 766 765 765 764 763 762 760 759 757 756 754 752 751 750 749 748 747 746 746 746
783 784 785 786 788 789 789 790 790 790 789 789 788 787 787 786 786 785 785 784 783 783 782 782 781 781 780 779 778 778 777 777 776 776 775 775 774 774 773 772 771 771 770 769 768 767 766 766 765 765 764 764 763 762 761 759 757 756 754 752 751 750 749 748 747 746 746 745 745
782 784 785 786 787 788 788 789 789 789 788 788 787 786 786 785 785 784 784 783 783 782 781 781 780 779 779 778 777 777 776 776 776 775 774 774 773 773 772 771 770 770 769 769 768 766 766 765 764 764 763 763 762 761 760 758 756 755 753 752 750 749 748 747 746 746 745 745 744
782 783 784 785 786 787 788 788 788 788 787 787 786 786 785 784 784 784 783 783 782 781 781 780 779 778 778 777 776 776 776 775 775 774 773 772 772 771 771 770 769 768 768 767 767 766 765 764 763 763 763 762 762 761 759 757 756 754 753 751 750 749 748 747 746 745 745 744 744
782 783 784 785 786 786 787 787 787 787 786 786 785 784 784 784 783 783 782 782 781 780 779 779 778 777 777 776 776 775 775 774 773 773 772 771 771 771 770 769 768 767 766 766 766 765 764 763 762 762 761 761 761 760 759 757 756 754 753 752 750 749 748 747 746 745 744 743 743
782 783 784 785 786 786 786 786 786 786 786 785 784 784 783 783 783 782 781 781 780 779 778 778 777 776 776 776 775 774 773 773 772 772 771 771 770 770 769 768 767 766 765 765 764 764 763 762 761 761 761 761 761 760 758 757 756 754 753 751 750 749 747 746 746 745 744 743 742
782 783 784 785 785 786 786 786 786 786 785 784 784 784 783 783 782 781 781 780 779 778 778 777 776 776 775 775 774 773 773 772 772 771 771 770 769 768 768 767 766 765 764 763 763 762 762 761 760 760 760 760 760 759 758 756 755 754 752 751 750 748 747 746 745 744 743 742 741